Barnwell, SC

3:03 AM EST on November 17, 2019 (GMT -0500)
Barnwell County

Weather History for KBNL - September, 2019

Change the Weather History Date:

Thursday, September 5, 2019

  Actual Average (WUND) Record (WUND)
Temperature  
Mean Temperature 81 °F -  
Max Temperature 87 °F - - (-1)
Min Temperature 75 °F - - (-1)
Cooling Degree Days 16    
Growing Degree Days 31 (Base 50)    
Moisture  
Dew Point 69 °F    
Average Humidity 67    
Maximum Humidity 83    
Minimum Humidity 55    
Precipitation  
Precipitation 0.00 in - - ()
Sea Level Pressure  
Sea Level Pressure 29.75 in    
Wind  
Wind Speed 14 mph (NNW)    
Max Wind Speed 22 mph    
Max Gust Speed 34 mph    
Visibility 10 miles    
Events Rain    
Averages and records for this station are not official NWS values.
T = Trace of Precipitation, MM = Missing Value Source: NWS Daily Summary

Daily Weather History Graph

Daily Weather History Graph

Search for Another Location

Airport or City:

Astronomy

Sep. 05, 2019 Rise Set
Actual Time 7:02 AM EDT 7:45 PM EDT
Civil Twilight 6:37 AM EDT 8:10 PM EDT
Nautical Twilight 6:07 AM EDT 8:40 PM EDT
Astronomical Twilight 5:37 AM EDT 9:10 PM EDT
Moon 1:46 PM EDT (9/5) No Moon Set
Length of Visible Light 13h 33m
Length of Day
12h 43m
Waxing Crescent, 45% of the Moon is Illuminated
Sep 5
Waxing Crescent
Sep 5
First Quarter
Sep 14
Full
Sep 21
Last Quarter
Sep 28
New

Hourly Weather History & Observations

Time (EDT) Temp. Heat Index Dew Point Humidity Pressure Visibility Wind Dir Wind Speed Gust Speed Precip Events Conditions
12:15 AM 78.8 °F - 68.0 °F 69% 29.80 in 10.0 mi NNE 13.8 mph 24.2 mph N/A   Clear
12:35 AM 78.8 °F - 68.0 °F 69% 29.80 in 10.0 mi NNE 18.4 mph 25.3 mph N/A   Clear
12:55 AM 78.8 °F - 68.0 °F 69% 29.80 in 10.0 mi NNE 18.4 mph 26.5 mph N/A   Clear
1:35 AM 78.8 °F - 68.0 °F 69% 29.78 in 10.0 mi NNE 16.1 mph 24.2 mph N/A   Clear
1:55 AM 78.8 °F - 68.0 °F 69% 29.78 in 10.0 mi NNE 11.5 mph 18.4 mph N/A   Clear
2:35 AM 78.8 °F - 68.0 °F 69% 29.77 in 10.0 mi NNE 12.7 mph 19.6 mph N/A   Scattered Clouds
2:55 AM 78.8 °F - 68.0 °F 69% 29.75 in 10.0 mi North 13.8 mph 19.6 mph N/A   Mostly Cloudy
3:15 AM 78.8 °F - 68.0 °F 69% 29.74 in 10.0 mi North 12.7 mph 23.0 mph N/A   Scattered Clouds
3:35 AM 77.0 °F - 68.0 °F 74% 29.74 in 10.0 mi North 10.4 mph 23.0 mph N/A   Scattered Clouds
3:55 AM 77.0 °F - 68.0 °F 74% 29.72 in 10.0 mi North 13.8 mph 20.7 mph N/A   Clear
4:15 AM 77.0 °F - 68.0 °F 74% 29.72 in 10.0 mi North 15.0 mph 20.7 mph N/A   Partly Cloudy
4:35 AM 77.0 °F - 69.8 °F 78% 29.72 in 10.0 mi North 16.1 mph - N/A   Scattered Clouds
4:55 AM 77.0 °F - 69.8 °F 78% 29.72 in 10.0 mi North 20.7 mph 26.5 mph N/A   Scattered Clouds
5:55 AM 77.0 °F - 69.8 °F 78% 29.72 in 10.0 mi North 15.0 mph 21.9 mph N/A   Mostly Cloudy
6:15 AM 77.0 °F - 69.8 °F 78% 29.72 in 10.0 mi North 17.3 mph - N/A   Scattered Clouds
6:35 AM 78.8 °F - 69.8 °F 74% 29.72 in 10.0 mi North 16.1 mph 28.8 mph N/A   Scattered Clouds
6:55 AM 77.0 °F - 69.8 °F 78% 29.72 in 10.0 mi NNW 16.1 mph 23.0 mph N/A   Mostly Cloudy
7:15 AM 77.0 °F - 68.0 °F 74% 29.72 in 10.0 mi NNW 17.3 mph 29.9 mph N/A   Overcast
7:35 AM 77.0 °F - 69.8 °F 78% 29.73 in 9.0 mi NNW 15.0 mph 29.9 mph N/A Rain Light Rain
7:55 AM 75.2 °F - 69.8 °F 83% 29.72 in 8.0 mi NNW 20.7 mph 26.5 mph N/A Rain Light Rain
8:15 AM 75.2 °F - 69.8 °F 83% 29.73 in 9.0 mi NNW 15.0 mph 29.9 mph N/A Rain Light Rain
8:35 AM 75.2 °F - 69.8 °F 83% 29.72 in 10.0 mi NNW 16.1 mph 23.0 mph N/A   Light Drizzle
8:55 AM 77.0 °F - 69.8 °F 78% 29.72 in 10.0 mi NNW 15.0 mph 23.0 mph N/A   Light Drizzle
9:15 AM 77.0 °F - 69.8 °F 78% 29.73 in 10.0 mi NNW 18.4 mph - N/A   Mostly Cloudy
9:35 AM 77.0 °F - 69.8 °F 78% 29.74 in 10.0 mi NNW 17.3 mph 26.5 mph N/A   Overcast
9:55 AM 77.0 °F - 69.8 °F 78% 29.74 in 10.0 mi NNW 16.1 mph 27.6 mph N/A   Overcast
10:15 AM 78.8 °F - 69.8 °F 74% 29.74 in 10.0 mi NNW 16.1 mph 23.0 mph N/A   Mostly Cloudy
10:35 AM 78.8 °F - 69.8 °F 74% 29.75 in 10.0 mi NNW 17.3 mph 23.0 mph N/A   Light Drizzle
10:55 AM 77.0 °F - 69.8 °F 78% 29.73 in 10.0 mi NNW 21.9 mph 29.9 mph N/A   Overcast
11:35 AM 80.6 °F 83.9 °F 69.8 °F 70% 29.73 in 10.0 mi NNW 17.3 mph 34.5 mph N/A   Clear
11:55 AM 80.6 °F 83.9 °F 69.8 °F 70% 29.73 in 10.0 mi NNW 20.7 mph 27.6 mph N/A   Mostly Cloudy
12:15 PM 82.4 °F 86.3 °F 69.8 °F 66% 29.73 in 10.0 mi NNW 17.3 mph 32.2 mph N/A   Scattered Clouds
12:35 PM 82.4 °F 86.3 °F 69.8 °F 66% 29.73 in 10.0 mi NNW 19.6 mph 29.9 mph N/A   Clear
12:55 PM 84.2 °F 88.4 °F 69.8 °F 62% 29.73 in 10.0 mi NNW 16.1 mph 27.6 mph N/A   Partly Cloudy
1:15 PM 84.2 °F 88.4 °F 69.8 °F 62% 29.73 in 10.0 mi NNW 18.4 mph 26.5 mph N/A   Partly Cloudy
1:35 PM 84.2 °F 88.4 °F 69.8 °F 62% 29.73 in 10.0 mi NNW 17.3 mph 24.2 mph N/A   Clear
1:55 PM 84.2 °F 88.4 °F 69.8 °F 62% 29.73 in 10.0 mi NNW 18.4 mph 27.6 mph N/A   Partly Cloudy
2:15 PM 86.0 °F 90.4 °F 69.8 °F 58% 29.72 in 10.0 mi NW 15.0 mph 28.8 mph N/A   Scattered Clouds
2:35 PM 86.0 °F 90.4 °F 69.8 °F 58% 29.73 in 10.0 mi NNW 18.4 mph 31.1 mph N/A   Mostly Cloudy
2:55 PM 86.0 °F 90.4 °F 69.8 °F 58% 29.74 in 10.0 mi NNW 13.8 mph 23.0 mph N/A   Mostly Cloudy
3:15 PM 86.0 °F 90.4 °F 69.8 °F 58% 29.73 in 10.0 mi NNW 17.3 mph 25.3 mph N/A   Mostly Cloudy
3:35 PM 86.0 °F 90.4 °F 69.8 °F 58% 29.74 in 10.0 mi NNW 18.4 mph - N/A   Mostly Cloudy
3:55 PM 87.8 °F 92.6 °F 69.8 °F 55% 29.74 in 10.0 mi NW 11.5 mph 23.0 mph N/A   Scattered Clouds
4:35 PM 87.8 °F 92.6 °F 69.8 °F 55% 29.74 in 10.0 mi NW 13.8 mph 19.6 mph N/A   Mostly Cloudy
4:55 PM 87.8 °F 92.6 °F 69.8 °F 55% 29.74 in 10.0 mi NNW 12.7 mph 25.3 mph N/A   Scattered Clouds
5:15 PM 86.0 °F 90.4 °F 69.8 °F 58% 29.74 in 10.0 mi NW 10.4 mph 20.7 mph N/A   Scattered Clouds
5:35 PM 86.0 °F 90.4 °F 69.8 °F 58% 29.74 in 10.0 mi NW 10.4 mph 17.3 mph N/A   Mostly Cloudy
5:55 PM 86.0 °F 90.4 °F 69.8 °F 58% 29.75 in 10.0 mi NW 11.5 mph 21.9 mph N/A   Partly Cloudy
6:15 PM 86.0 °F 90.4 °F 69.8 °F 58% 29.75 in 10.0 mi NW 12.7 mph - N/A   Partly Cloudy
6:35 PM 86.0 °F 90.4 °F 69.8 °F 58% 29.76 in 10.0 mi NW 8.1 mph 18.4 mph N/A   Partly Cloudy
6:55 PM 84.2 °F 88.4 °F 69.8 °F 62% 29.76 in 10.0 mi NW 6.9 mph 16.1 mph N/A   Scattered Clouds
7:15 PM 84.2 °F 87.3 °F 68.0 °F 58% 29.76 in 10.0 mi NW 9.2 mph 16.1 mph N/A   Overcast
7:35 PM 84.2 °F 87.3 °F 68.0 °F 58% 29.76 in 10.0 mi NW 10.4 mph 18.4 mph N/A   Overcast
7:55 PM 84.2 °F 87.3 °F 68.0 °F 58% 29.76 in 10.0 mi NW 11.5 mph - N/A   Mostly Cloudy
8:15 PM 84.2 °F 87.3 °F 68.0 °F 58% 29.77 in 10.0 mi NW 9.2 mph - N/A   Clear
8:35 PM 84.2 °F 87.3 °F 68.0 °F 58% 29.78 in 10.0 mi WNW 5.8 mph 15.0 mph N/A   Clear
8:55 PM 82.4 °F 85.4 °F 68.0 °F 62% 29.79 in 10.0 mi Variable 4.6 mph - N/A   Clear
9:15 PM 82.4 °F 85.4 °F 68.0 °F 62% 29.79 in 10.0 mi WNW 6.9 mph - N/A   Clear
9:35 PM 82.4 °F 85.4 °F 68.0 °F 62% 29.80 in 10.0 mi WNW 6.9 mph - N/A   Mostly Cloudy
9:55 PM 82.4 °F 85.4 °F 68.0 °F 62% 29.80 in 10.0 mi NW 6.9 mph - N/A   Mostly Cloudy
10:15 PM 82.4 °F 85.4 °F 68.0 °F 62% 29.80 in 10.0 mi NW 6.9 mph 15.0 mph N/A   Scattered Clouds
10:35 PM 82.4 °F 85.4 °F 68.0 °F 62% 29.80 in 10.0 mi NW 8.1 mph - N/A   Scattered Clouds
10:55 PM 82.4 °F 85.4 °F 68.0 °F 62% 29.80 in 10.0 mi NW 5.8 mph - N/A   Partly Cloudy
11:15 PM 80.6 °F 83.2 °F 68.0 °F 65% 29.79 in 10.0 mi NW 5.8 mph - N/A   Partly Cloudy
11:35 PM 80.6 °F 83.2 °F 68.0 °F 65% 29.79 in 10.0 mi WNW 4.6 mph - N/A   Mostly Cloudy
11:55 PM 80.6 °F 83.2 °F 68.0 °F 65% 29.79 in 10.0 mi NW 6.9 mph - N/A   Scattered Clouds